Location: ?????
(31.8092°N, 35.2590°E)
Time: 15:06:44
(UTC+00:00)

Cosmos 2369 Rocket - Pass Details

Date: 20 June 2021
Orbit: 827 x 854 km, 71.0° (Epoch: 31 July)

Event Time Altitude Azimuth Distance (km) Brightness Sun altitude
Rises 22:34:54 0° 341° (NNW) 3,425 6.1 -33.3°
Reaches altitude 10° 22:37:22 10° 342° (NNW) 2,485 5.2 -33.1°
Enters shadow 22:41:31 50° 350° (N) 1,078 2.9 -32.9°
